Location: Unspecified
(57.6483°N, 3.3184°W)
Time: 00:23:48
(UTC+01:00)

N. Korean satellite - Pass Details

Date: 01 March 2021
Orbit: 452 x 499 km, 97.2° (Epoch: 22 April)

Event Time Altitude Azimuth Distance (km) Brightness Sun altitude
Rises 06:14:58 0° 12° (NNE) 2,508 10.3 -7.7°
Reaches altitude 10° 06:17:01 10° 10° (N) 1,635 9.3 -7.5°
Maximum altitude 06:20:30 64° 289° (WNW) 529 6.5 -7.0°
Drops below altitude 10° 06:24:00 10° 207° (SSW) 1,648 9.0 -6.5°
Sets 06:26:04 0° 205° (SSW) 2,531 10.0 -6.3°
